User: anonymous   Login
Location: Unspecified
(0.0000°N, 0.0000°E)
Time: 17:36:17
(UTC+00:00)
Language:

Hubble Space Telescope - Orbit

View from above orbital plane
View from above orbital plane
View from above satellite
View from above satellite

Ground track
Ground track

The orbit data is extracted from the following two-line orbital elements,

1 20580U 90037B   17114.90381351 +.00001127 +00000-0 +58802-4 0  9996
2 20580 028.4706 359.5993 0002583 323.1146 143.5942 15.08745016282226
Epoch (UTC): 24 April 2017 21:41:29
Eccentricity: 0.0002583
inclination: 28.4706°
perigee height: 538 km
apogee height: 542 km
right ascension of ascending node: 359.5993°
argument of perigee: 323.1146°
revolutions per day: 15.08745016
mean anomaly at epoch: 143.5942°
orbit number at epoch: 28222

The dashed part of the orbit path shows where the satellite is in the earth's shadow,  

DLR